ITY5RJ LIRF-LIEE

Flight info

Callsign ITY5RJ
Flight time 0h 43m
Altitude 31000
Route ESINO DCT ABIDU DCT DEXUL Q125 KOVAS
Aircraft A320/M-SDE3FGHIRWY/LB1

Departure

Time 2026-05-07 13:40
Airport Rome–Fiumicino Leonardo da Vinci International Airport (LIRF)

Arrival

Time 2026-05-07 14:24
Airport Cagliari Elmas Airport (LIEE)
Time Latitude Longitude Altitude Speed Heading
2026-05-07 13:20 41.79804 12.25687 16 ft 0 kts 295°
2026-05-07 13:31 41.79804 12.25688 15 ft 1 kts 295°
2026-05-07 13:32 41.79792 12.25718 17 ft 4 kts 310°
2026-05-07 13:32 41.79772 12.25738 16 ft 4 kts 351°
2026-05-07 13:32 41.79758 12.25738 18 ft 0 kts 25°
2026-05-07 13:35 41.79762 12.25740 18 ft 3 kts 25°
2026-05-07 13:35 41.79776 12.25749 16 ft 2 kts 25°
2026-05-07 13:35 41.79799 12.25763 15 ft 8 kts 25°
2026-05-07 13:35 41.79871 12.25815 17 ft 12 kts 34°
2026-05-07 13:36 41.79940 12.25865 16 ft 11 kts 23°
2026-05-07 13:36 41.80005 12.25904 15 ft 10 kts 25°
2026-05-07 13:36 41.80068 12.25944 15 ft 11 kts 25°
2026-05-07 13:36 41.80139 12.25988 16 ft 11 kts 24°
2026-05-07 13:37 41.80206 12.26029 15 ft 10 kts 25°
2026-05-07 13:37 41.80268 12.26068 16 ft 10 kts 25°
2026-05-07 13:37 41.80336 12.26109 15 ft 11 kts 25°
2026-05-07 13:37 41.80409 12.26155 15 ft 11 kts 25°
2026-05-07 13:38 41.80487 12.26180 15 ft 12 kts
2026-05-07 13:38 41.80569 12.26193 15 ft 12 kts 21°
2026-05-07 13:38 41.80642 12.26210 15 ft 10 kts 349°
2026-05-07 13:38 41.80707 12.26173 17 ft 11 kts 335°
2026-05-07 13:39 41.80743 12.26143 19 ft 3 kts 300°
2026-05-07 13:39 41.80740 12.26121 19 ft 2 kts 247°
2026-05-07 13:39 41.80724 12.26071 18 ft 17 kts 248°
2026-05-07 13:39 41.80585 12.25570 17 ft 94 kts 249°
2026-05-07 13:40 41.80281 12.24482 16 ft 153 kts 249°
2026-05-07 13:40 41.79896 12.23079 572 ft 161 kts 251°
2026-05-07 13:40 41.79507 12.21651 1317 ft 168 kts 251°
2026-05-07 13:40 41.79308 12.19997 1711 ft 192 kts 269°
2026-05-07 13:41 41.79273 12.18111 2329 ft 209 kts 268°
2026-05-07 13:41 41.79170 12.16155 3053 ft 214 kts 257°
2026-05-07 13:41 41.78505 12.14308 3543 ft 233 kts 228°
2026-05-07 13:41 41.77157 12.12923 3980 ft 258 kts 213°
2026-05-07 13:42 41.75615 12.11587 4834 ft 267 kts 212°
2026-05-07 13:42 41.74062 12.10250 5795 ft 271 kts 212°
2026-05-07 13:42 41.72466 12.08875 6762 ft 275 kts 213°
2026-05-07 13:42 41.70852 12.07481 7738 ft 277 kts 213°
2026-05-07 13:43 41.69231 12.06075 8734 ft 278 kts 213°
2026-05-07 13:43 41.67601 12.04658 9690 ft 281 kts 214°
2026-05-07 13:43 41.65938 12.03211 10412 ft 293 kts 214°
2026-05-07 13:43 41.64162 12.01666 10737 ft 316 kts 214°
2026-05-07 13:44 41.62281 12.00032 11370 ft 326 kts 214°
2026-05-07 13:44 41.60369 11.98373 12185 ft 330 kts 214°
2026-05-07 13:44 41.58437 11.96700 13032 ft 332 kts 214°
2026-05-07 13:44 41.56487 11.95014 13867 ft 335 kts 214°
2026-05-07 13:45 41.54521 11.93314 14621 ft 338 kts 214°
2026-05-07 13:45 41.52542 11.91605 15376 ft 340 kts 214°
2026-05-07 13:45 41.50549 11.89885 16121 ft 342 kts 214°
2026-05-07 13:45 41.48546 11.88158 16876 ft 344 kts 214°
2026-05-07 13:46 41.46529 11.86416 17619 ft 346 kts 215°
2026-05-07 13:46 41.44499 11.84665 18346 ft 349 kts 215°
2026-05-07 13:46 41.42481 11.82926 18959 ft 351 kts 215°
2026-05-07 13:46 41.40477 11.81048 19583 ft 352 kts 223°
2026-05-07 13:47 41.38798 11.78688 20197 ft 352 kts 235°
2026-05-07 13:47 41.37538 11.75897 20791 ft 353 kts 246°
2026-05-07 13:47 41.36672 11.72829 21410 ft 355 kts 251°
2026-05-07 13:47 41.35841 11.69725 22054 ft 357 kts 251°
2026-05-07 13:48 41.34996 11.66608 22732 ft 359 kts 251°
2026-05-07 13:48 41.34142 11.63484 23398 ft 360 kts 251°
2026-05-07 13:48 41.33283 11.60346 23949 ft 361 kts 251°
2026-05-07 13:48 41.32426 11.57205 24485 ft 362 kts 251°
2026-05-07 13:49 41.31567 11.54057 24993 ft 362 kts 251°
2026-05-07 13:49 41.30705 11.50903 25497 ft 363 kts 251°
2026-05-07 13:49 41.29839 11.47742 25992 ft 364 kts 251°
2026-05-07 13:49 41.28972 11.44583 26475 ft 365 kts 251°
2026-05-07 13:50 41.28101 11.41409 26947 ft 365 kts 251°
2026-05-07 13:50 41.27230 11.38230 27413 ft 366 kts 251°
2026-05-07 13:50 41.26355 11.35046 27872 ft 367 kts 251°
2026-05-07 13:50 41.25479 11.31857 28320 ft 368 kts 251°
2026-05-07 13:51 41.24599 11.28657 28775 ft 369 kts 250°
2026-05-07 13:51 41.23713 11.25455 29210 ft 370 kts 250°
2026-05-07 13:51 41.22822 11.22243 29624 ft 371 kts 250°
2026-05-07 13:51 41.21928 11.19014 29913 ft 374 kts 250°
2026-05-07 13:52 41.21026 11.15760 30192 ft 377 kts 250°
2026-05-07 13:52 41.20114 11.12479 30486 ft 379 kts 250°
2026-05-07 13:52 41.19200 11.09193 30770 ft 381 kts 250°
2026-05-07 13:52 41.18295 11.05933 30949 ft 382 kts 250°
2026-05-07 13:53 41.17387 11.02670 30993 ft 369 kts 250°
2026-05-07 13:53 41.16515 10.99538 30993 ft 357 kts 250°
2026-05-07 13:53 41.15656 10.96462 30991 ft 354 kts 249°
2026-05-07 13:54 41.13946 10.90362 30992 ft 352 kts 249°
2026-05-07 13:54 41.12238 10.84281 30991 ft 352 kts 249°
2026-05-07 13:55 41.10530 10.78202 30992 ft 352 kts 249°
2026-05-07 13:55 41.08818 10.72122 30994 ft 352 kts 249°
2026-05-07 13:56 41.07108 10.66052 30991 ft 352 kts 249°
2026-05-07 13:56 41.05384 10.59973 30961 ft 353 kts 249°
2026-05-07 13:57 41.03947 10.54900 30971 ft 355 kts 248°
2026-05-07 13:57 41.02205 10.48784 30972 ft 355 kts 248°
2026-05-07 13:58 41.00453 10.42659 30974 ft 356 kts 248°
2026-05-07 13:58 40.98229 10.36844 30976 ft 356 kts 233°
2026-05-07 13:59 40.94615 10.32330 30973 ft 359 kts 223°
2026-05-07 13:59 40.90778 10.28080 30970 ft 360 kts 223°
2026-05-07 14:00 40.86944 10.23835 30948 ft 360 kts 223°
2026-05-07 14:00 40.83099 10.19576 30967 ft 361 kts 223°
2026-05-07 14:01 40.79240 10.15327 30967 ft 362 kts 223°
2026-05-07 14:01 40.75394 10.11094 30969 ft 362 kts 223°
2026-05-07 14:02 40.71532 10.06832 30970 ft 362 kts 223°
2026-05-07 14:02 40.67658 10.02576 30946 ft 363 kts 223°
2026-05-07 14:03 40.63770 9.98314 30948 ft 364 kts 223°
2026-05-07 14:03 40.59876 9.94044 30959 ft 365 kts 223°
2026-05-07 14:04 40.55970 9.89765 30972 ft 369 kts 223°
2026-05-07 14:04 40.53966 9.87573 30982 ft 381 kts 223°
2026-05-07 14:04 40.51906 9.85319 30982 ft 390 kts 223°
2026-05-07 14:05 40.47700 9.80726 30797 ft 392 kts 223°
2026-05-07 14:05 40.45628 9.78472 29911 ft 393 kts 222°
2026-05-07 14:05 40.43522 9.76185 29072 ft 392 kts 222°
2026-05-07 14:05 40.41423 9.73910 28297 ft 390 kts 222°
2026-05-07 14:06 40.39339 9.71654 27570 ft 388 kts 222°
2026-05-07 14:06 40.37263 9.69407 26877 ft 386 kts 222°
2026-05-07 14:06 40.35202 9.67173 26282 ft 382 kts 222°
2026-05-07 14:06 40.33178 9.64978 25820 ft 375 kts 222°
2026-05-07 14:07 40.31184 9.62816 25379 ft 368 kts 222°
2026-05-07 14:07 40.29225 9.60695 24944 ft 363 kts 223°
2026-05-07 14:07 40.27291 9.58600 24509 ft 360 kts 223°
2026-05-07 14:07 40.25369 9.56525 24070 ft 356 kts 222°
2026-05-07 14:08 40.23321 9.54634 23290 ft 364 kts 217°
2026-05-07 14:08 40.21185 9.52849 22780 ft 361 kts 215°
2026-05-07 14:08 40.19063 9.51124 22319 ft 357 kts 214°
2026-05-07 14:08 40.16963 9.49434 21880 ft 353 kts 214°
2026-05-07 14:09 40.14878 9.47759 21405 ft 350 kts 214°
2026-05-07 14:09 40.12821 9.46099 20964 ft 346 kts 214°
2026-05-07 14:09 40.10780 9.44446 20496 ft 344 kts 214°
2026-05-07 14:09 40.08755 9.42801 20006 ft 341 kts 213°
2026-05-07 14:10 40.06743 9.41162 19575 ft 340 kts 213°
2026-05-07 14:10 40.04737 9.39526 19123 ft 339 kts 213°
2026-05-07 14:10 40.02764 9.37917 18667 ft 338 kts 213°
2026-05-07 14:10 40.00775 9.36299 18215 ft 336 kts 212°
2026-05-07 14:11 39.98795 9.34692 17732 ft 334 kts 212°
2026-05-07 14:11 39.96800 9.33074 17285 ft 333 kts 212°
2026-05-07 14:11 39.94864 9.31502 16853 ft 331 kts 212°
2026-05-07 14:11 39.92914 9.29920 16430 ft 329 kts 212°
2026-05-07 14:12 39.90972 9.28346 16006 ft 328 kts 212°
2026-05-07 14:12 39.89043 9.26783 15582 ft 326 kts 212°
2026-05-07 14:12 39.87117 9.25226 15162 ft 325 kts 212°
2026-05-07 14:12 39.85201 9.23678 14735 ft 324 kts 212°
2026-05-07 14:13 39.83289 9.22136 14305 ft 323 kts 212°
2026-05-07 14:13 39.81385 9.20601 13886 ft 321 kts 212°
2026-05-07 14:13 39.79486 9.19070 13423 ft 321 kts 212°
2026-05-07 14:13 39.77610 9.17560 13235 ft 311 kts 212°
2026-05-07 14:14 39.75800 9.16106 13071 ft 302 kts 212°
2026-05-07 14:14 39.74028 9.14680 12752 ft 298 kts 212°
2026-05-07 14:14 39.72297 9.13284 12382 ft 296 kts 212°
2026-05-07 14:14 39.70559 9.11884 12008 ft 294 kts 211°
2026-05-07 14:15 39.68824 9.10491 11611 ft 293 kts 211°
2026-05-07 14:15 39.67096 9.09103 11223 ft 292 kts 211°
2026-05-07 14:15 39.65314 9.07844 10789 ft 291 kts 200°
2026-05-07 14:15 39.63371 9.07187 10428 ft 287 kts 186°
2026-05-07 14:16 39.61374 9.07135 10012 ft 287 kts 177°
2026-05-07 14:16 39.59372 9.07195 9383 ft 291 kts 177°
2026-05-07 14:16 39.57349 9.07248 8578 ft 290 kts 177°
2026-05-07 14:16 39.55339 9.07293 7812 ft 288 kts 179°
2026-05-07 14:17 39.53403 9.06966 7455 ft 273 kts 195°
2026-05-07 14:17 39.51729 9.05944 7094 ft 263 kts 214°
2026-05-07 14:17 39.50279 9.04580 6689 ft 255 kts 215°
2026-05-07 14:17 39.48851 9.03228 6290 ft 253 kts 214°
2026-05-07 14:18 39.47455 9.01910 5884 ft 244 kts 214°
2026-05-07 14:18 39.46108 9.00641 5490 ft 234 kts 213°
2026-05-07 14:18 39.44830 8.99431 5177 ft 223 kts 214°
2026-05-07 14:18 39.43572 8.98245 4799 ft 227 kts 212°
2026-05-07 14:19 39.42295 8.97039 4492 ft 226 kts 215°
2026-05-07 14:19 39.41036 8.95839 4058 ft 222 kts 213°
2026-05-07 14:19 39.39821 8.94698 3693 ft 208 kts 213°
2026-05-07 14:19 39.38676 8.93647 3534 ft 197 kts 212°
2026-05-07 14:20 39.37515 8.92722 3177 ft 195 kts 194°
2026-05-07 14:20 39.36232 8.92734 2882 ft 182 kts 155°
2026-05-07 14:20 39.35206 8.93643 2578 ft 178 kts 136°
2026-05-07 14:20 39.34307 8.94719 2250 ft 179 kts 134°
2026-05-07 14:21 39.33407 8.95817 1945 ft 176 kts 134°
2026-05-07 14:21 39.32520 8.96871 1687 ft 169 kts 135°
2026-05-07 14:21 39.31687 8.97836 1482 ft 152 kts 135°
2026-05-07 14:21 39.30940 8.98691 1303 ft 138 kts 136°
2026-05-07 14:22 39.30245 8.99505 1125 ft 132 kts 136°
2026-05-07 14:22 39.29556 9.00310 921 ft 136 kts 139°
2026-05-07 14:22 39.28849 9.01132 756 ft 137 kts 140°
2026-05-07 14:22 39.28135 9.01970 564 ft 139 kts 141°
2026-05-07 14:23 39.27426 9.02797 406 ft 137 kts 141°
2026-05-07 14:23 39.26725 9.03609 213 ft 134 kts 142°
2026-05-07 14:23 39.26044 9.04393 38 ft 133 kts 141°
2026-05-07 14:23 39.25437 9.05092 15 ft 94 kts 139°
2026-05-07 14:24 39.25074 9.05515 16 ft 52 kts 139°
2026-05-07 14:24 39.24847 9.05777 17 ft 39 kts 138°
2026-05-07 14:24 39.24706 9.05943 15 ft 11 kts 137°
2026-05-07 14:24 39.24680 9.06034 15 ft 11 kts 79°
2026-05-07 14:25 39.24709 9.06118 15 ft 10 kts 65°
2026-05-07 14:25 39.24758 9.06146 15 ft 8 kts 334°
2026-05-07 14:25 39.24801 9.06102 15 ft 8 kts 321°
2026-05-07 14:25 39.24858 9.06038 15 ft 13 kts 318°
2026-05-07 14:26 39.24923 9.05964 15 ft 12 kts 318°
2026-05-07 14:26 39.24982 9.05895 15 ft 11 kts 318°
2026-05-07 14:26 39.25037 9.05831 15 ft 10 kts 317°
2026-05-07 14:26 39.25091 9.05776 15 ft 9 kts 335°
2026-05-07 14:27 39.25139 9.05809 16 ft 8 kts 63°
2026-05-07 14:27 39.25156 9.05875 15 ft 6 kts 94°
2026-05-07 14:27 39.25148 9.05926 15 ft 5 kts 82°
2026-05-07 14:27 39.25167 9.05965 15 ft 5 kts 51°
2026-05-07 14:28 39.25190 9.05987 15 ft 4 kts 12°
2026-05-07 14:28 39.25216 9.05969 15 ft 5 kts 317°
2026-05-07 14:28 39.25234 9.05949 15 ft 0 kts 323°